STARLINK-37199

Last updated on Sun Apr 12 2026 00:02:08 GMT+0000 (Coordinated Universal Time)

1 68327U 26059G 26101.50002315 -.01965612 00000+0 -18332-1 0 9993 2 68327 53.1591 198.5136 0000908 72.9809 237.7175 15.69741725 4314
UTC large
Height (km)
Speed (km/s)
/
Latitude / Longitude
Inclination (degrees)
Orbital Period (minutes)
Azimuth
Elevation
Range (km)
Doppler Factor

Next 0 passes for location: London (51.5072 / 0.1276)

Sorry there are no passes over London.
STARLINK-37199